Weather History for KARA - May, 2013

Change the Weather History Date:

Sunday, May 26, 2013

  Actual Average Record
Temperature  
Mean Temperature 81 °F 78 °F  
Max Temperature 88 °F 88 °F 93 °F (1996)
Min Temperature 73 °F 69 °F 53 °F (1979)
Degree Days  
Heating Degree Days 0 0  
Month to date heating degree days 21 0  
Since 1 July heating degree days 1150 1408  
Cooling Degree Days 16 14  
Month to date cooling degree days 238 280  
Year to date cooling degree days 482 500  
Growing Degree Days 30 (Base 50)    
Moisture  
Dew Point 69 °F    
Average Humidity 72    
Maximum Humidity 84    
Minimum Humidity 59    
Precipitation  
Precipitation 0.00 in 0.25 in 3.32 in (1997)
Month to date precipitation 9.10 3.76  
Year to date precipitation 35.35 21.01  
Sea Level Pressure  
Sea Level Pressure 30.13 in    
Wind  
Wind Speed 7 mph (SSE)    
Max Wind Speed 16 mph    
Max Gust Speed 22 mph    
Visibility 10 miles    
Events Thunderstorm    
T = Trace of Precipitation, MM = Missing Value Source: NWS Daily Summary

Daily Weather History Graph

Daily Weather History Graph

Search for Another Location

Airport or City:

Trip Planner

Search our weather history database for the weather conditions in past years. The results will help you decide how hot, cold, wet, or windy it might be!

Date:

Astronomy

May. 26, 2013 Rise Set
Actual Time 6:08 AM CDT 8:01 PM CDT
Civil Twilight 5:41 AM CDT 8:27 PM CDT
Nautical Twilight 5:09 AM CDT 9:00 PM CDT
Astronomical Twilight 4:35 AM CDT 9:34 PM CDT
Moon 9:50 PM CDT (5/26) 7:37 AM CDT (5/26)
Length of Visible Light 14h 46m
Length of Day
13h 52m
Waning Gibbous, 96% of the Moon is Illuminated
May 26
Waning Gibbous
May 31
Last Quarter
Jun 8
New
Jun 16
First Quarter
Jun 23
Full

Hourly Weather History & Observations

Time (CDT) Temp. Heat Index Dew Point Humidity Pressure Visibility Wind Dir Wind Speed Gust Speed Precip Events Conditions
12:53 AM 73.9 °F - 66.9 °F 79% 30.13 in 10.0 mi SE 5.8 mph - N/A   Clear
1:53 AM 73.0 °F - 68.0 °F 84% 30.12 in 10.0 mi SE 4.6 mph - N/A   Clear
2:53 AM 73.9 °F - 66.9 °F 79% 30.12 in 10.0 mi SE 4.6 mph - N/A   Clear
3:53 AM 73.9 °F - 68.0 °F 82% 30.12 in 10.0 mi Calm Calm - N/A   Clear
4:53 AM 73.0 °F - 66.9 °F 81% 30.13 in 10.0 mi ESE 3.5 mph - N/A   Clear
5:53 AM 73.0 °F - 66.9 °F 81% 30.13 in 10.0 mi East 3.5 mph - N/A   Clear
6:53 AM 73.0 °F - 68.0 °F 84% 30.14 in 10.0 mi Calm Calm - N/A   Clear
7:53 AM 75.9 °F - 70.0 °F 82% 30.15 in 10.0 mi Calm Calm - N/A   Clear
8:53 AM 80.1 °F 83.6 °F 71.1 °F 74% 30.15 in 10.0 mi ESE 5.8 mph - N/A   Clear
9:53 AM 82.9 °F 87.0 °F 70.0 °F 65% 30.17 in 10.0 mi SSE 9.2 mph - N/A   Clear
10:53 AM 84.0 °F 89.0 °F 71.1 °F 65% 30.16 in 10.0 mi SE 8.1 mph - N/A   Scattered Clouds
11:53 AM 84.0 °F 88.4 °F 70.0 °F 63% 30.16 in 10.0 mi SSE 5.8 mph - N/A   Mostly Cloudy
12:03 PM 84.2 °F 89.6 °F 71.6 °F 66% 30.16 in 10.0 mi SSE 5.8 mph - N/A   Mostly Cloudy
12:26 PM 84.2 °F 89.6 °F 71.6 °F 66% 30.15 in 10.0 mi South 10.4 mph - N/A   Mostly Cloudy
12:53 PM 84.9 °F 90.1 °F 71.1 °F 63% 30.15 in 10.0 mi South 8.1 mph - N/A   Partly Cloudy
1:53 PM 87.1 °F 93.6 °F 72.0 °F 61% 30.14 in 10.0 mi SSW 9.2 mph - N/A   Partly Cloudy
2:04 PM 87.8 °F 93.8 °F 71.6 °F 58% 30.14 in 10.0 mi SSW 9.2 mph - N/A Thunderstorm Thunderstorm
2:53 PM 84.9 °F 89.4 °F 70.0 °F 61% 30.13 in 10.0 mi SE 9.2 mph - N/A Thunderstorm Thunderstorm
3:53 PM 84.9 °F 89.4 °F 70.0 °F 61% 30.12 in 10.0 mi SSE 9.2 mph - N/A Thunderstorm Thunderstorm
3:58 PM 84.2 °F 88.4 °F 69.8 °F 62% 30.12 in 10.0 mi South 9.2 mph - N/A   Overcast
4:53 PM 84.0 °F 87.8 °F 69.1 °F 61% 30.11 in 10.0 mi South 15.0 mph - N/A   Mostly Cloudy
5:53 PM 84.0 °F 87.8 °F 69.1 °F 61% 30.10 in 10.0 mi SSE 12.7 mph - N/A   Clear
6:53 PM 82.9 °F 86.5 °F 69.1 °F 63% 30.09 in 10.0 mi SSE 12.7 mph - N/A   Clear
7:53 PM 81.0 °F 83.8 °F 68.0 °F 65% 30.10 in 10.0 mi South 10.4 mph - N/A   Clear
8:53 PM 77.0 °F - 68.0 °F 74% 30.10 in 10.0 mi SE 6.9 mph - N/A   Clear
9:53 PM 75.0 °F - 68.0 °F 79% 30.12 in 10.0 mi SE 4.6 mph - N/A   Clear
10:53 PM 75.0 °F - 69.1 °F 82% 30.12 in 10.0 mi SSE 5.8 mph - N/A   Clear
11:53 PM 75.0 °F - 69.1 °F 82% 30.12 in 10.0 mi SE 5.8 mph - N/A   Clear